When you browse on this site, cookies collect data to enhance your experience and personalize the content and advertising you see.
Visit our Privacy Policy to learn more. By continuing to use the site, you agree to this use of cookies and data.
  • en France
  • Liste des pays
  • À 7 jours
  • Température de l'eau
  • Carte satellitaire
  • Carte météo
  • Widgets météo
  • user-avatar
    Se connecter

    Météo par heure à Melbourne

    Ce jour, 23 Janvier, Mercredi

    Heure Température Précipitation Vent Pression Humidité
    00:00 +22°C° 0 mm 1 m/s 758 mmHg 66%
    01:00 +21°C° 0 mm 2 m/s 758 mmHg 68%
    02:00 +20°C° 0 mm 2 m/s 758 mmHg 72%
    03:00 +19°C° 0 mm 2 m/s 758 mmHg 76%
    04:00 +19°C° 0 mm 2 m/s 758 mmHg 84%
    05:00 +19°C° 0.1 mm 2 m/s 759 mmHg 84%
    06:00 +20°C° 0.1 mm 3 m/s 759 mmHg 83%
    07:00 +20°C° 0.1 mm 3 m/s 759 mmHg 83%
    08:00 +21°C° 0 mm 3 m/s 759 mmHg 78%
    09:00 +22°C° 0 mm 3 m/s 759 mmHg 73%
    10:00 +24°C° 0 mm 3 m/s 760 mmHg 65%
    11:00 +26°C° 0 mm 3 m/s 760 mmHg 58%
    12:00 +27°C° 0 mm 4 m/s 759 mmHg 52%
    13:00 +29°C° 0 mm 4 m/s 759 mmHg 46%
    14:00 +28°C° 0 mm 5 m/s 759 mmHg 47%
    15:00 +28°C° 0 mm 5 m/s 759 mmHg 48%
    16:00 +27°C° 0 mm 4 m/s 758 mmHg 51%
    17:00 +26°C° 0 mm 4 m/s 759 mmHg 55%
    18:00 +25°C° 0 mm 4 m/s 759 mmHg 59%
    19:00 +23°C° 0 mm 4 m/s 759 mmHg 63%
    20:00 +22°C° 0 mm 3 m/s 759 mmHg 68%
    21:00 +21°C° 0 mm 3 m/s 760 mmHg 73%
    22:00 +20°C° 0 mm 2 m/s 760 mmHg 79%
    23:00 +19°C° 0 mm 2 m/s 759 mmHg 81%

    Demain, 24 Janvier, Jeudi

    Heure Température Précipitation Vent Pression Humidité
    00:00 +19°C° 0 mm 2 m/s 759 mmHg 84%
    01:00 +20°C° 0 mm 1 m/s 759 mmHg 86%
    02:00 +20°C° 0 mm 1 m/s 759 mmHg 87%
    03:00 +20°C° 0 mm 1 m/s 759 mmHg 89%
    04:00 +19°C° 0 mm 1 m/s 759 mmHg 90%
    05:00 +20°C° 0 mm 1 m/s 759 mmHg 87%
    06:00 +21°C° 0 mm 1 m/s 759 mmHg 83%
    07:00 +19°C° 0 mm 0 m/s 759 mmHg 80%
    08:00 +25°C° 0 mm 1 m/s 759 mmHg 66%
    09:00 +28°C° 0 mm 1 m/s 758 mmHg 52%
    10:00 +32°C° 0 mm 1 m/s 758 mmHg 38%
    11:00 +35°C° 0 mm 1 m/s 757 mmHg 32%
    12:00 +39°C° 0 mm 1 m/s 757 mmHg 26%
    13:00 +42°C° 0 mm 1 m/s 756 mmHg 19%
    14:00 +43°C° 0 mm 1 m/s 755 mmHg 18%
    15:00 +43°C° 0 mm 2 m/s 755 mmHg 16%
    16:00 +45°C° 0 mm 2 m/s 754 mmHg 14%
    17:00 +43°C° 0 mm 2 m/s 754 mmHg 17%
    18:00 +41°C° 0 mm 2 m/s 754 mmHg 19%
    19:00 +40°C° 0 mm 2 m/s 754 mmHg 22%
    20:00 +38°C° 0 mm 2 m/s 754 mmHg 25%
    21:00 +36°C° 0 mm 3 m/s 754 mmHg 29%
    22:00 +35°C° 0 mm 3 m/s 754 mmHg 32%
    23:00 +34°C° 0 mm 3 m/s 753 mmHg 32%

    Après-demain, 25 Janvier, Vendredi

    Heure Température Précipitation Vent Pression Humidité
    00:00 +34°C° 0 mm 3 m/s 753 mmHg 32%
    01:00 +34°C° 0 mm 4 m/s 752 mmHg 31%
    02:00 +34°C° 0 mm 5 m/s 752 mmHg 31%
    03:00 +34°C° 0 mm 6 m/s 752 mmHg 31%
    04:00 +34°C° 0 mm 7 m/s 751 mmHg 31%
    05:00 +35°C° 0 mm 7 m/s 751 mmHg 33%
    06:00 +35°C° 0 mm 8 m/s 752 mmHg 36%
    07:00 +35°C° 0 mm 8 m/s 752 mmHg 38%
    08:00 +39°C° 0 mm 8 m/s 752 mmHg 32%
    09:00 +41°C° 0 mm 8 m/s 752 mmHg 27%
    10:00 +45°C° 0 mm 8 m/s 752 mmHg 21%
    11:00 +47°C° 0 mm 7 m/s 752 mmHg 18%
    12:00 +50°C° 0 mm 7 m/s 751 mmHg 15%
    13:00 +51°C° 0 mm 6 m/s 751 mmHg 12%
    14:00 +46°C° 0 mm 6 m/s 751 mmHg 21%
    15:00 +41°C° 0 mm 5 m/s 750 mmHg 30%
    16:00 +35°C° 0 mm 5 m/s 750 mmHg 38%
    17:00 +33°C° 0.1 mm 5 m/s 751 mmHg 47%
    18:00 +29°C° 0.1 mm 5 m/s 752 mmHg 55%
    19:00 +26°C° 0.1 mm 4 m/s 753 mmHg 63%
    20:00 +26°C° 0 mm 4 m/s 753 mmHg 64%
    21:00 +25°C° 0 mm 3 m/s 754 mmHg 66%
    22:00 +24°C° 0 mm 2 m/s 755 mmHg 68%
    23:00 +24°C° 0.2 mm 2 m/s 755 mmHg 71%

    26 Janvier, Samedi

    Heure Température Précipitation Vent Pression Humidité
    00:00 +23°C° 0.2 mm 2 m/s 755 mmHg 74%
    01:00 +23°C° 0.2 mm 2 m/s 755 mmHg 77%
    02:00 +23°C° 0 mm 2 m/s 755 mmHg 79%
    03:00 +21°C° 0 mm 2 m/s 755 mmHg 80%
    04:00 +21°C° 0 mm 2 m/s 754 mmHg 81%
    05:00 +21°C° 0 mm 2 m/s 755 mmHg 80%
    06:00 +21°C° 0 mm 2 m/s 755 mmHg 80%
    07:00 +21°C° 0 mm 2 m/s 755 mmHg 79%
    08:00 +23°C° 0 mm 2 m/s 755 mmHg 73%
    09:00 +25°C° 0 mm 2 m/s 755 mmHg 66%
    10:00 +26°C° 0 mm 1 m/s 755 mmHg 59%
    11:00 +28°C° 0 mm 2 m/s 755 mmHg 52%
    12:00 +30°C° 0 mm 2 m/s 754 mmHg 45%
    13:00 +32°C° 0 mm 2 m/s 754 mmHg 38%
    14:00 +34°C° 0 mm 3 m/s 753 mmHg 36%
    15:00 +34°C° 0 mm 3 m/s 753 mmHg 35%
    16:00 +35°C° 0 mm 4 m/s 752 mmHg 34%
    17:00 +32°C° 0 mm 4 m/s 752 mmHg 42%
    18:00 +29°C° 0 mm 5 m/s 753 mmHg 50%
    19:00 +26°C° 0 mm 5 m/s 753 mmHg 57%
    20:00 +25°C° 0.3 mm 4 m/s 754 mmHg 63%
    21:00 +22°C° 0.3 mm 4 m/s 755 mmHg 69%
    22:00 +20°C° 0.3 mm 4 m/s 756 mmHg 75%
    23:00 +20°C° 0 mm 3 m/s 756 mmHg 74%

    27 Janvier, Dimanche

    Heure Température Précipitation Vent Pression Humidité
    00:00 +20°C° 0 mm 3 m/s 756 mmHg 73%
    01:00 +19°C° 0 mm 2 m/s 756 mmHg 72%
    02:00 +19°C° 0 mm 2 m/s 756 mmHg 72%
    03:00 +19°C° 0 mm 2 m/s 756 mmHg 71%
    04:00 +20°C° 0 mm 1 m/s 756 mmHg 71%
    05:00 +19°C° 0 mm 2 m/s 757 mmHg 70%
    06:00 +19°C° 0 mm 2 m/s 757 mmHg 70%
    07:00 +19°C° 0 mm 2 m/s 757 mmHg 69%
    08:00 +20°C° 0 mm 3 m/s 758 mmHg 64%
    09:00 +21°C° 0 mm 3 m/s 758 mmHg 58%
    10:00 +22°C° 0 mm 3 m/s 758 mmHg 52%
    11:00 +24°C° 0 mm 3 m/s 758 mmHg 48%
    12:00 +26°C° 0 mm 3 m/s 758 mmHg 43%
    13:00 +27°C° 0 mm 3 m/s 757 mmHg 38%
    14:00 +27°C° 0 mm 3 m/s 757 mmHg 38%
    15:00 +27°C° 0 mm 3 m/s 757 mmHg 38%
    16:00 +27°C° 0 mm 4 m/s 757 mmHg 38%
    17:00 +26°C° 0 mm 4 m/s 757 mmHg 44%
    18:00 +23°C° 0 mm 4 m/s 758 mmHg 50%
    19:00 +22°C° 0 mm 5 m/s 758 mmHg 55%
    20:00 +21°C° 0 mm 4 m/s 759 mmHg 60%
    21:00 +20°C° 0 mm 4 m/s 759 mmHg 64%
    22:00 +19°C° 0 mm 3 m/s 760 mmHg 69%
    23:00 +19°C° 0 mm 2 m/s 760 mmHg 70%

    28 Janvier, Lundi

    Heure Température Précipitation Vent Pression Humidité
    00:00 +18°C° 0 mm 2 m/s 759 mmHg 71%
    01:00 +18°C° 0 mm 2 m/s 759 mmHg 72%
    02:00 +19°C° 0 mm 1 m/s 759 mmHg 73%
    03:00 +19°C° 0 mm 1 m/s 759 mmHg 73%
    04:00 +16°C° 0 mm 0 m/s 758 mmHg 74%
    05:00 +17°C° 0 mm 0 m/s 758 mmHg 72%
    06:00 +17°C° 0 mm 0 m/s 759 mmHg 70%
    07:00 +18°C° 0 mm 0 m/s 759 mmHg 67%
    08:00 +21°C° 0 mm 0 m/s 759 mmHg 56%
    09:00 +24°C° 0 mm 0 m/s 759 mmHg 45%
    10:00 +28°C° 0 mm 0 m/s 759 mmHg 33%
    11:00 +32°C° 0 mm 1 m/s 758 mmHg 28%
    12:00 +33°C° 0 mm 1 m/s 758 mmHg 23%
    13:00 +36°C° 0 mm 2 m/s 757 mmHg 18%
    14:00 +37°C° 0 mm 2 m/s 757 mmHg 18%
    15:00 +37°C° 0 mm 3 m/s 756 mmHg 17%
    16:00 +37°C° 0 mm 4 m/s 756 mmHg 17%
    17:00 +34°C° 0 mm 4 m/s 757 mmHg 29%
    18:00 +29°C° 0 mm 5 m/s 757 mmHg 41%
    19:00 +25°C° 0 mm 5 m/s 757 mmHg 54%
    20:00 +23°C° 0 mm 4 m/s 758 mmHg 58%
    21:00 +22°C° 0 mm 3 m/s 759 mmHg 63%
    22:00 +20°C° 0 mm 3 m/s 759 mmHg 68%
    23:00 +20°C° 0 mm 2 m/s 759 mmHg 70%
    Voir plus